BAW252 MWCR-MBPV

Flight info

Callsign BAW252
Flight time 1h 13m
Altitude 37000
Route GHANN DCT WRECK BR2L PVN
Aircraft B772/H-SDE2E3FGHIJ5LORVWXY/LB1D1

Departure

Time 2026-04-23 17:35
Airport Owen Roberts International Airport (MWCR)

Arrival

Time 2026-04-23 18:49
Airport Providenciales International Airport (MBPV)
Time Latitude Longitude Altitude Speed Heading
2026-04-23 17:01 19.29491 -81.35769 20 ft 0 kts 349°
2026-04-23 17:28 19.29474 -81.35764 23 ft 3 kts 346°
2026-04-23 17:28 19.29455 -81.35758 23 ft 4 kts 317°
2026-04-23 17:28 19.29448 -81.35738 25 ft 3 kts 257°
2026-04-23 17:28 19.29454 -81.35711 25 ft 4 kts 257°
2026-04-23 17:29 19.29456 -81.35701 24 ft 0 kts 257°
2026-04-23 17:31 19.29453 -81.35715 25 ft 5 kts 257°
2026-04-23 17:31 19.29442 -81.35767 22 ft 10 kts 257°
2026-04-23 17:31 19.29397 -81.35817 20 ft 11 kts 182°
2026-04-23 17:32 19.29302 -81.35804 19 ft 17 kts 198°
2026-04-23 17:32 19.29239 -81.35932 22 ft 23 kts 256°
2026-04-23 17:32 19.29201 -81.36099 22 ft 23 kts 256°
2026-04-23 17:32 19.29162 -81.36266 21 ft 23 kts 256°
2026-04-23 17:33 19.29120 -81.36447 21 ft 28 kts 256°
2026-04-23 17:33 19.29074 -81.36645 19 ft 28 kts 256°
2026-04-23 17:33 19.29027 -81.36845 20 ft 27 kts 261°
2026-04-23 17:33 19.29060 -81.36965 21 ft 14 kts 269°
2026-04-23 17:34 19.29002 -81.36980 20 ft 11 kts 118°
2026-04-23 17:34 19.29010 -81.36915 20 ft 0 kts 75°
2026-04-23 17:34 19.29154 -81.36308 22 ft 114 kts 75°
2026-04-23 17:35 19.29413 -81.35295 236 ft 160 kts 76°
2026-04-23 17:35 19.29961 -81.32939 1531 ft 175 kts 88°
2026-04-23 17:35 19.30157 -81.31634 2067 ft 189 kts 68°
2026-04-23 17:36 19.30737 -81.30363 2596 ft 190 kts 71°
2026-04-23 17:36 19.31131 -81.29049 3002 ft 187 kts 76°
2026-04-23 17:36 19.31475 -81.27710 3462 ft 191 kts 77°
2026-04-23 17:36 19.31819 -81.26355 3955 ft 195 kts 77°
2026-04-23 17:37 19.32175 -81.24963 4462 ft 196 kts 76°
2026-04-23 17:37 19.32547 -81.23540 4989 ft 206 kts 76°
2026-04-23 17:37 19.33331 -81.20567 5909 ft 216 kts 76°
2026-04-23 17:38 19.33741 -81.19025 6380 ft 221 kts 77°
2026-04-23 17:38 19.34165 -81.17431 6868 ft 231 kts 76°
2026-04-23 17:38 19.34608 -81.15774 7320 ft 238 kts 75°
2026-04-23 17:38 19.35076 -81.14006 7881 ft 262 kts 76°
2026-04-23 17:39 19.35579 -81.12098 8366 ft 279 kts 75°
2026-04-23 17:39 19.36117 -81.10107 8827 ft 285 kts 74°
2026-04-23 17:39 19.36672 -81.08058 9322 ft 292 kts 74°
2026-04-23 17:39 19.37234 -81.05976 9826 ft 295 kts 74°
2026-04-23 17:40 19.37792 -81.03875 10345 ft 301 kts 75°
2026-04-23 17:40 19.38386 -81.01642 10614 ft 331 kts 74°
2026-04-23 17:40 19.39038 -80.99201 11070 ft 353 kts 74°
2026-04-23 17:40 19.39720 -80.96660 11849 ft 364 kts 74°
2026-04-23 17:41 19.40418 -80.94062 12832 ft 368 kts 73°
2026-04-23 17:41 19.41840 -80.88772 14729 ft 379 kts 73°
2026-04-23 17:41 19.42562 -80.86084 15743 ft 382 kts 73°
2026-04-23 17:42 19.44047 -80.80546 17386 ft 398 kts 73°
2026-04-23 17:42 19.44800 -80.77731 18181 ft 407 kts 73°
2026-04-23 17:42 19.45581 -80.74814 18899 ft 415 kts 73°
2026-04-23 17:43 19.46377 -80.71839 19658 ft 422 kts 73°
2026-04-23 17:43 19.47184 -80.68819 20416 ft 430 kts 73°
2026-04-23 17:43 19.48003 -80.65751 21191 ft 436 kts 73°
2026-04-23 17:43 19.48845 -80.62633 21940 ft 443 kts 72°
2026-04-23 17:44 19.49982 -80.59587 22613 ft 449 kts 63°
2026-04-23 17:44 19.51403 -80.56616 23311 ft 455 kts 60°
2026-04-23 17:44 19.54458 -80.50634 24620 ft 467 kts 60°
2026-04-23 17:45 19.56007 -80.47582 25257 ft 473 kts 60°
2026-04-23 17:45 19.59085 -80.41357 26442 ft 486 kts 61°
2026-04-23 17:45 19.60641 -80.38149 27024 ft 491 kts 61°
2026-04-23 17:46 19.63776 -80.31629 28193 ft 501 kts 61°
2026-04-23 17:46 19.65361 -80.28321 28718 ft 507 kts 61°
2026-04-23 17:46 19.66970 -80.24963 29241 ft 512 kts 61°
2026-04-23 17:47 19.68593 -80.21577 29760 ft 516 kts 61°
2026-04-23 17:47 19.70228 -80.18167 30224 ft 521 kts 61°
2026-04-23 17:47 19.73543 -80.11248 31055 ft 529 kts 61°
2026-04-23 17:48 19.75214 -80.07760 31476 ft 532 kts 62°
2026-04-23 17:48 19.76876 -80.04289 31879 ft 535 kts 62°
2026-04-23 17:48 19.78567 -80.00753 32274 ft 538 kts 62°
2026-04-23 17:48 19.80270 -79.97189 32650 ft 541 kts 62°
2026-04-23 17:49 19.81978 -79.93615 33015 ft 544 kts 62°
2026-04-23 17:49 19.83702 -79.90003 33387 ft 547 kts 62°
2026-04-23 17:49 19.85427 -79.86386 33763 ft 550 kts 61°
2026-04-23 17:49 19.87161 -79.82746 34078 ft 553 kts 61°
2026-04-23 17:50 19.88885 -79.79128 34357 ft 555 kts 62°
2026-04-23 17:50 19.92374 -79.71802 35253 ft 552 kts 62°
2026-04-23 17:50 19.94099 -79.68173 35762 ft 549 kts 62°
2026-04-23 17:51 19.95821 -79.64550 36232 ft 548 kts 62°
2026-04-23 17:51 19.97536 -79.60938 36672 ft 547 kts 62°
2026-04-23 17:51 20.00965 -79.53713 37014 ft 552 kts 62°
2026-04-23 17:52 20.02694 -79.50065 37018 ft 550 kts 62°
2026-04-23 17:52 20.07816 -79.39246 37013 ft 544 kts 62°
2026-04-23 17:53 20.12893 -79.28502 37014 ft 544 kts 62°
2026-04-23 17:54 20.16295 -79.21292 37018 ft 546 kts 62°
2026-04-23 17:54 20.21411 -79.10429 37018 ft 548 kts 62°
2026-04-23 17:55 20.26537 -78.99523 37015 ft 549 kts 62°
2026-04-23 17:56 20.29952 -78.92244 37015 ft 549 kts 62°
2026-04-23 17:56 20.35040 -78.81386 37012 ft 548 kts 62°
2026-04-23 17:57 20.38442 -78.74113 37015 ft 548 kts 62°
2026-04-23 17:58 20.43537 -78.63202 37040 ft 547 kts 62°
2026-04-23 17:58 20.46947 -78.55932 37016 ft 548 kts 62°
2026-04-23 17:59 20.50367 -78.48651 37011 ft 549 kts 62°
2026-04-23 17:59 20.53764 -78.41360 37011 ft 549 kts 62°
2026-04-23 18:00 20.57130 -78.34098 37007 ft 549 kts 62°
2026-04-23 18:00 20.60517 -78.26783 37016 ft 549 kts 62°
2026-04-23 18:01 20.63905 -78.19464 37008 ft 550 kts 62°
2026-04-23 18:01 20.67293 -78.12137 37004 ft 550 kts 62°
2026-04-23 18:02 20.70107 -78.06044 37005 ft 549 kts 62°
2026-04-23 18:02 20.74029 -77.97475 37010 ft 551 kts 63°
2026-04-23 18:03 20.77373 -77.90152 37002 ft 551 kts 63°
2026-04-23 18:03 20.80761 -77.82789 37008 ft 551 kts 63°
2026-04-23 18:04 20.84148 -77.75431 37005 ft 551 kts 63°
2026-04-23 18:04 20.87532 -77.68061 37007 ft 551 kts 63°
2026-04-23 18:05 20.90905 -77.60697 37008 ft 551 kts 63°
2026-04-23 18:05 20.94250 -77.53384 37008 ft 551 kts 63°
2026-04-23 18:06 20.97618 -77.46008 37017 ft 551 kts 63°
2026-04-23 18:06 21.00981 -77.38636 37018 ft 551 kts 63°
2026-04-23 18:07 21.04342 -77.31257 37013 ft 551 kts 63°
2026-04-23 18:07 21.07133 -77.25121 37020 ft 551 kts 63°
2026-04-23 18:08 21.10486 -77.17741 37019 ft 551 kts 63°
2026-04-23 18:08 21.14377 -77.09163 37021 ft 551 kts 63°
2026-04-23 18:09 21.17725 -77.01770 37026 ft 551 kts 63°
2026-04-23 18:09 21.20505 -76.95626 37023 ft 551 kts 63°
2026-04-23 18:10 21.23852 -76.88218 37030 ft 551 kts 63°
2026-04-23 18:10 21.27191 -76.80816 37042 ft 551 kts 63°
2026-04-23 18:11 21.30505 -76.73458 37041 ft 552 kts 63°
2026-04-23 18:11 21.33849 -76.66025 37037 ft 553 kts 63°
2026-04-23 18:12 21.37194 -76.58578 37038 ft 553 kts 63°
2026-04-23 18:12 21.40535 -76.51129 37043 ft 553 kts 63°
2026-04-23 18:13 21.43872 -76.43679 37042 ft 554 kts 63°
2026-04-23 18:13 21.47186 -76.36269 37043 ft 553 kts 63°
2026-04-23 18:14 21.50525 -76.28795 37043 ft 553 kts 63°
2026-04-23 18:14 21.53852 -76.21334 37043 ft 553 kts 63°
2026-04-23 18:15 21.57175 -76.13871 37047 ft 554 kts 63°
2026-04-23 18:15 21.60502 -76.06389 37047 ft 555 kts 63°
2026-04-23 18:16 21.63808 -75.98944 37047 ft 555 kts 63°
2026-04-23 18:16 21.67131 -75.91450 37046 ft 555 kts 63°
2026-04-23 18:17 21.72119 -75.80177 37045 ft 555 kts 63°
2026-04-23 18:17 21.75434 -75.72672 37044 ft 555 kts 63°
2026-04-23 18:18 21.78745 -75.65165 37047 ft 555 kts 63°
2026-04-23 18:18 21.82029 -75.57709 37080 ft 555 kts 63°
2026-04-23 18:19 21.85342 -75.50177 37049 ft 557 kts 63°
2026-04-23 18:19 21.88653 -75.42634 37046 ft 557 kts 63°
2026-04-23 18:20 21.91964 -75.35081 37049 ft 557 kts 63°
2026-04-23 18:20 21.95272 -75.27523 37049 ft 557 kts 63°
2026-04-23 18:21 21.98297 -75.19901 37042 ft 558 kts 74°
2026-04-23 18:21 21.99515 -75.11685 37059 ft 554 kts 91°
2026-04-23 18:22 21.98971 -75.03458 37051 ft 549 kts 100°
2026-04-23 18:22 21.98105 -74.95278 37051 ft 550 kts 100°
2026-04-23 18:23 21.96910 -74.82981 37049 ft 552 kts 99°
2026-04-23 18:24 21.95781 -74.70620 36636 ft 557 kts 99°
2026-04-23 18:24 21.95400 -74.66499 35918 ft 560 kts 99°
2026-04-23 18:25 21.94622 -74.58128 34325 ft 564 kts 98°
2026-04-23 18:25 21.94230 -74.53930 33751 ft 560 kts 98°
2026-04-23 18:25 21.93842 -74.49782 33164 ft 555 kts 98°
2026-04-23 18:25 21.93457 -74.45667 32630 ft 549 kts 98°
2026-04-23 18:26 21.93074 -74.41589 32101 ft 544 kts 98°
2026-04-23 18:26 21.92693 -74.37559 31579 ft 539 kts 98°
2026-04-23 18:26 21.92313 -74.33556 31052 ft 534 kts 98°
2026-04-23 18:26 21.91936 -74.29590 30535 ft 530 kts 98°
2026-04-23 18:27 21.91561 -74.25659 29988 ft 525 kts 98°
2026-04-23 18:27 21.91191 -74.21801 29354 ft 522 kts 98°
2026-04-23 18:27 21.90820 -74.17930 28732 ft 517 kts 98°
2026-04-23 18:27 21.90451 -74.14097 28161 ft 513 kts 98°
2026-04-23 18:28 21.90085 -74.10291 27582 ft 508 kts 98°
2026-04-23 18:28 21.89722 -74.06512 27011 ft 504 kts 97°
2026-04-23 18:28 21.89370 -74.02765 26449 ft 505 kts 97°
2026-04-23 18:28 21.89010 -73.98966 25873 ft 510 kts 97°
2026-04-23 18:29 21.88645 -73.95192 25288 ft 502 kts 97°
2026-04-23 18:29 21.88287 -73.91524 24718 ft 496 kts 97°
2026-04-23 18:29 21.87932 -73.87843 24145 ft 490 kts 97°
2026-04-23 18:29 21.87580 -73.84211 23566 ft 484 kts 96°
2026-04-23 18:30 21.87228 -73.80615 22902 ft 479 kts 96°
2026-04-23 18:30 21.86879 -73.77081 22325 ft 471 kts 96°
2026-04-23 18:30 21.86533 -73.73590 21768 ft 465 kts 96°
2026-04-23 18:30 21.86196 -73.70199 21220 ft 458 kts 96°
2026-04-23 18:31 21.85859 -73.66813 20699 ft 452 kts 96°
2026-04-23 18:31 21.85528 -73.63464 20167 ft 446 kts 96°
2026-04-23 18:31 21.85202 -73.60160 19647 ft 441 kts 96°
2026-04-23 18:31 21.84873 -73.56891 19120 ft 436 kts 96°
2026-04-23 18:32 21.84545 -73.53655 18588 ft 432 kts 96°
2026-04-23 18:32 21.84224 -73.50459 18033 ft 428 kts 96°
2026-04-23 18:32 21.83915 -73.47286 17473 ft 423 kts 95°
2026-04-23 18:32 21.83710 -73.44146 16951 ft 418 kts 92°
2026-04-23 18:33 21.83581 -73.41040 16436 ft 413 kts 92°
2026-04-23 18:33 21.83473 -73.37966 15946 ft 408 kts 92°
2026-04-23 18:33 21.83363 -73.34938 15439 ft 404 kts 92°
2026-04-23 18:33 21.83244 -73.31924 14953 ft 400 kts 92°
2026-04-23 18:34 21.83120 -73.28989 14461 ft 396 kts 92°
2026-04-23 18:34 21.82990 -73.26036 13959 ft 393 kts 92°
2026-04-23 18:34 21.82857 -73.23103 13410 ft 390 kts 93°
2026-04-23 18:34 21.82723 -73.20199 12885 ft 386 kts 93°
2026-04-23 18:35 21.82590 -73.17331 12384 ft 382 kts 93°
2026-04-23 18:35 21.82457 -73.14486 11888 ft 378 kts 93°
2026-04-23 18:35 21.82325 -73.11668 11393 ft 375 kts 93°
2026-04-23 18:35 21.82191 -73.08872 10906 ft 372 kts 93°
2026-04-23 18:36 21.82060 -73.06105 10529 ft 365 kts 93°
2026-04-23 18:36 21.81931 -73.03443 10348 ft 343 kts 94°
2026-04-23 18:36 21.81804 -73.00968 10194 ft 319 kts 94°
2026-04-23 18:36 21.81661 -72.98693 10062 ft 301 kts 95°
2026-04-23 18:37 21.81501 -72.96470 9808 ft 297 kts 95°
2026-04-23 18:37 21.81340 -72.94264 9474 ft 295 kts 96°
2026-04-23 18:37 21.81181 -72.92062 9155 ft 294 kts 95°
2026-04-23 18:37 21.81024 -72.89879 8844 ft 292 kts 95°
2026-04-23 18:38 21.80870 -72.87705 8503 ft 291 kts 95°
2026-04-23 18:38 21.80716 -72.85539 8181 ft 290 kts 96°
2026-04-23 18:38 21.80562 -72.83379 7861 ft 288 kts 96°
2026-04-23 18:38 21.80409 -72.81229 7553 ft 287 kts 95°
2026-04-23 18:39 21.80259 -72.79096 7230 ft 285 kts 95°
2026-04-23 18:39 21.80132 -72.76976 6908 ft 283 kts 95°
2026-04-23 18:39 21.80012 -72.74894 6597 ft 281 kts 94°
2026-04-23 18:39 21.79892 -72.72808 6290 ft 278 kts 94°
2026-04-23 18:40 21.79773 -72.70749 6134 ft 269 kts 94°
2026-04-23 18:40 21.79659 -72.68774 6120 ft 263 kts 95°
2026-04-23 18:40 21.79546 -72.66841 5720 ft 255 kts 94°
2026-04-23 18:40 21.79435 -72.64956 5231 ft 249 kts 94°
2026-04-23 18:41 21.79328 -72.63128 4867 ft 240 kts 93°
2026-04-23 18:41 21.79222 -72.61350 4553 ft 236 kts 93°
2026-04-23 18:41 21.79119 -72.59607 4315 ft 235 kts 93°
2026-04-23 18:41 21.79015 -72.57849 4043 ft 234 kts 93°
2026-04-23 18:42 21.78910 -72.56096 3863 ft 233 kts 92°
2026-04-23 18:42 21.78808 -72.54351 3674 ft 229 kts 91°
2026-04-23 18:42 21.78713 -72.52701 3467 ft 217 kts 92°
2026-04-23 18:42 21.78617 -72.51152 3330 ft 198 kts 92°
2026-04-23 18:43 21.78532 -72.49751 3225 ft 178 kts 93°
2026-04-23 18:43 21.78453 -72.48465 3157 ft 174 kts 91°
2026-04-23 18:43 21.78376 -72.47168 3080 ft 171 kts 91°
2026-04-23 18:43 21.78306 -72.45921 2869 ft 166 kts 91°
2026-04-23 18:44 21.78247 -72.44707 2671 ft 160 kts 91°
2026-04-23 18:44 21.78189 -72.43518 2491 ft 160 kts 90°
2026-04-23 18:44 21.78132 -72.42347 2355 ft 152 kts 90°
2026-04-23 18:44 21.78077 -72.41196 2122 ft 152 kts 90°
2026-04-23 18:45 21.78021 -72.40090 1958 ft 148 kts 89°
2026-04-23 18:45 21.77968 -72.38988 1786 ft 149 kts 89°
2026-04-23 18:45 21.77914 -72.37878 1597 ft 148 kts 90°
2026-04-23 18:45 21.77861 -72.36785 1404 ft 143 kts 89°
2026-04-23 18:46 21.77810 -72.35750 1246 ft 135 kts 89°
2026-04-23 18:46 21.77761 -72.34742 1060 ft 135 kts 89°
2026-04-23 18:46 21.77711 -72.33725 883 ft 136 kts 89°
2026-04-23 18:46 21.77658 -72.32733 784 ft 133 kts 88°
2026-04-23 18:47 21.77594 -72.31731 678 ft 131 kts 89°
2026-04-23 18:47 21.77557 -72.30768 578 ft 130 kts 86°
2026-04-23 18:47 21.77495 -72.29795 389 ft 128 kts 85°
2026-04-23 18:47 21.77449 -72.28817 229 ft 135 kts 83°
2026-04-23 18:48 21.77416 -72.27839 52 ft 131 kts 87°
2026-04-23 18:48 21.77387 -72.26941 33 ft 105 kts 92°
2026-04-23 18:48 21.77354 -72.26283 27 ft 73 kts 94°
2026-04-23 18:48 21.77331 -72.25812 23 ft 57 kts 91°
2026-04-23 18:49 21.77340 -72.25593 24 ft 11 kts 73°
2026-04-23 18:49 21.77315 -72.25542 24 ft 4 kts 199°
2026-04-23 18:49 21.77304 -72.25616 21 ft 24 kts 276°
2026-04-23 18:49 21.77325 -72.25884 25 ft 40 kts 272°
2026-04-23 18:50 21.77334 -72.26077 31 ft 37 kts 273°
2026-04-23 18:50 21.77351 -72.26425 26 ft 33 kts 273°
2026-04-23 18:50 21.77363 -72.26657 27 ft 30 kts 272°
2026-04-23 18:50 21.77373 -72.26882 30 ft 30 kts 273°
2026-04-23 18:51 21.77407 -72.27052 31 ft 16 kts 321°
2026-04-23 18:51 21.77497 -72.27097 33 ft 14 kts 300°
2026-04-23 18:51 21.77511 -72.27203 34 ft 14 kts 274°
2026-04-23 18:51 21.77511 -72.27295 35 ft 12 kts 266°
2026-04-23 18:52 21.77532 -72.27328 35 ft 5 kts 343°
2026-04-23 18:52 21.77563 -72.27313 35 ft 5 kts 37°
2026-04-23 18:52 21.77585 -72.27295 35 ft 3 kts 36°
2026-04-23 18:52 21.77594 -72.27289 35 ft 0 kts 34°